Погода в Магане

Россия / Республика Саха (Якутия)     62°06′12″N   129°32′04″E
темп.,
°C
ветер,
м/с
пор.,
м/с
влажн.,
%
обл.,
%
осадки,
мм/ч
давл.,
гПа
погр.,
м
27 февраля, сб
сб2700:00−33св2210091 0.0 103222
03:00−33всв2210095 0.0 103124
06:00−33всв22100100 0.0 103042
09:00−32св2310099 0.0 102992
12:00−28всв3498100 0.0 1027228
15:00−24всв4796100 0.0 1023382
18:00−25всв4897100 0.0 1022242
21:00−26св3698100 0.0 1020158
28 февраля, вс
вс2800:00−27ссв3597100 0.0 1018163
03:00−28с2297100 0.0 101671
06:00−29ссз2595100 0.0 1017141
09:00−28сз3793100 0.0 1018262
12:00−25зсз4791100 0.0 1020395
15:00−24зсз5990100 0.0 1021573
18:00−25зсз4895100 0.1 1023674
21:00−26зсз4995100 0.4 1024683
1 марта, пн
пн100:00−27зсз4994100 0.2 1025610
03:00−27з4993100 0.3 1025590
06:00−28з4993100 0.1 1025558
09:00−28зсз4892100 0.2 1026678
12:00−26зсз4788100 0.1 1026860
15:00−26зсз4786100 0.1 1026929
18:00−27зсз2694100 0.1 1027250
21:00−29з3696100 0.1 1027135
2 марта, вт
вт200:00−32з339696 0.0 102757
03:00−33з239794 0.0 102748
06:00−34з229795 0.0 102727
09:00−33з249683 0.0 1027119
12:00−28зсз248995 0.0 1026494
15:00−27зсз238897 0.0 1026603
18:00−30сз1294100 0.0 102619
21:00−31зсз1293100 0.0 102619
3 марта, ср
ср300:00−32зсз1293100 0.0 102619
03:00−32сз1194100 0.0 102519
06:00−31сз1197100 0.0 102519
09:00−30сз1297100 0.1 1024100
12:00−28ссз1288100 0.1 1022506
15:00−27сз2388100 0.1 1021617
18:00−29зсз2396100 0.1 102069
21:00−31зсз369699 0.1 1019174